Temp_Advection
nan nan nan nan nan nan nan nan nan nan nan nan nan nan nan nan nan nan nan nan nan nan nan nan nan nan nan nan nan nan nan nan nan nan nan nan nan nan nan nan nan nan nan nan nan nan nan nan nan nan nan nan nan nan nan nan nan nan nan nan nan nan nan nan nan nan nan nan nan nan nan nan nan nan
nan -0 -0 0 0 0 0 0 0 0 0 0 0 0 0 -0 0 0 -0 -0 -0 -2 -2 -2 -2 -1 -1 -1 -1 -0 0 0 0 -0 -0 -0 -0 0 0 -0 -0 -0 0 0 0 0 0 0 0 0 0 0 0 0 0 -0 -0 -0 0 0 0 0 -0 -0 0 0 -0 -0 -0 -0 0 -0 -0 nan
nan 0 -0 -0 -0 0 -0 -0 0 0 0 0 0 0 0 0 -0 0 -0 -1 -0 -0 -1 -2 -1 -1 -2 -1 -1 -1 -0 0 0 -0 0 0 -0 -0 -0 -0 -0 -0 0 0 0 -0 -0 0 1 0 0 0 0 0 -0 -0 0 0 0 0 0 0 0 -0 -0 -0 -0 -0 -0 -0 0 0 0 nan
nan -0 -0 -0 -0 -0 -0 -0 -0 -0 -0 -0 0 0 0 0 -0 0 0 -1 -1 0 0 -1 -1 -1 -1 -2 -1 -1 -1 -0 0 0 0 0 -0 -0 -0 -0 -0 -0 0 0 -0 -0 -0 0 1 0 0 0 0 -0 -0 0 0 0 0 0 0 0 -0 -0 -0 -0 -0 -0 -0 -0 0 0 0 nan
nan 0 -0 -0 -0 -0 -0 -0 -0 -0 -0 -0 -0 0 0 0 0 -0 -0 -0 -1 -1 0 -0 -1 -1 -1 -2 -1 -1 -1 -1 -0 -0 0 0 0 -0 -0 -0 -0 -0 -0 0 -0 -0 0 1 1 0 0 0 0 0 -0 0 0 0 0 0 0 0 0 -0 0 -0 -0 -0 -0 -0 0 -0 -0 nan
nan 0 0 -0 -0 -0 -0 -0 -0 -0 -0 -0 -0 0 0 0 0 0 -0 0 -0 -1 -1 0 -1 -1 -1 -1 -1 -1 -1 -1 -1 -1 0 0 0 -0 -0 -0 -0 -0 -0 0 0 -0 0 0 0 0 0 0 0 0 -0 -0 0 0 0 0 0 0 0 0 0 -0 -0 -0 -0 -0 0 0 -0 nan
nan 0 0 -0 -0 -0 -0 -0 -0 -0 -0 -0 -0 -0 -0 -0 0 0 -0 -0 -0 -1 -1 -0 -0 -1 -1 -1 -1 -1 -1 -1 -1 -1 -1 0 0 -0 -0 -0 -0 -0 -0 0 0 0 0 0 0 0 0 0 0 0 0 -0 0 0 0 0 0 0 0 0 0 -0 -0 -0 -0 -0 0 0 -0 nan
nan 1 0 0 -0 -0 -0 -0 -0 -0 -0 -0 -0 -0 -0 0 -0 -0 -0 -0 -0 -0 -0 -0 -0 -0 -1 -1 -1 -1 -1 -1 -1 -1 -1 -0 0 0 -0 -0 -0 -0 -0 0 0 -0 -0 0 0 0 -0 0 0 0 0 -0 0 0 0 0 0 0 0 0 0 0 0 -0 -0 -0 -0 0 0 nan
nan 1 1 0 0 -0 -0 -0 -0 -0 -0 -0 -0 0 -0 -0 -0 -0 -0 -0 -0 -0 -0 -0 -0 -0 -1 -1 -1 -0 -1 -2 -1 -1 -1 -1 -0 0 0 -0 -0 -0 -0 0 0 -0 -0 0 0 0 0 0 0 0 0 -0 0 0 0 0 0 0 0 0 0 0 0 -0 -0 -0 -0 0 0 nan
nan 0 0 0 0 0 0 0 -0 -0 -0 -0 -0 -0 -0 -0 -0 -0 -0 -0 -0 -0 -0 -1 -0 -0 -0 -1 -1 -0 -1 -1 -2 -1 -1 -1 -0 0 0 -0 -0 -0 -0 0 -0 -1 -0 0 0 0 1 0 0 0 0 -0 0 0 0 0 0 0 0 0 0 0 0 -0 -0 -0 0 0 0 nan
nan 0 0 0 0 0 0 -0 -0 -0 -0 -0 -0 -0 -0 0 -0 -0 -0 -0 -0 -0 -0 -1 -1 -0 -0 -1 -1 -0 -0 -1 -1 -1 -1 -1 -1 -0 0 -0 -0 -0 -0 -0 -0 -0 0 0 0 0 0 0 0 1 0 0 0 1 0 -0 0 0 0 0 0 0 -0 -0 -0 -0 0 0 0 nan
nan 0 0 0 0 0 0 0 0 0 -0 -0 -0 -0 0 0 -0 -0 -0 -0 -0 -0 -0 -0 -1 -1 -0 -0 -1 -0 -0 -1 -1 -1 -1 -1 -1 -1 -0 -0 -0 -0 -0 -0 -0 -0 0 0 0 0 0 -0 0 1 1 0 0 0 -0 -0 0 0 0 0 0 0 -0 -0 -0 -0 0 0 0 nan
nan 0 0 0 0 0 0 0 0 0 0 0 -0 -0 0 -0 -0 -0 -0 -0 -0 -1 -0 -0 -0 -1 -1 -1 -1 -1 -0 -1 -1 -1 -1 -1 -1 -1 -1 -0 0 -0 -1 -0 -0 -0 0 0 0 0 0 0 0 1 1 -0 0 0 -0 -0 0 0 0 0 0 0 -0 -0 -0 -0 -0 0 0 nan
nan 0 0 0 0 0 0 0 0 0 0 0 0 0 0 -0 -0 -0 -0 -0 -0 -1 -1 -0 -0 -0 -1 -0 -0 -1 -1 -1 -1 -1 -1 -1 -1 -1 -1 -1 -0 0 -0 -1 -0 -0 -0 0 -0 -0 0 0 0 0 -0 -0 -0 -0 -1 -0 0 0 0 0 0 0 0 -0 -0 -0 -0 -0 0 nan
nan 0 0 0 0 0 0 0 0 0 0 -0 -0 -0 0 0 0 0 0 -0 -0 -0 -1 -1 -0 -0 -1 -0 -0 -0 -1 -1 -1 -1 -0 -1 -1 -0 -1 -1 -1 0 0 -0 -1 -0 -0 0 0 0 0 0 -0 -0 -0 -0 -0 -0 -1 -0 0 1 0 0 0 0 0 -0 -0 -0 -0 -0 -0 nan
nan 0 0 0 0 0 0 0 0 0 0 -0 -0 -0 0 0 0 0 0 0 -0 -0 -1 -1 -1 -0 -1 -1 -0 -0 -0 -1 -1 -0 -0 -1 -1 -0 -1 -1 -1 -0 0 -0 -1 -1 -0 0 0 0 0 0 0 0 0 0 0 -0 -0 -0 0 1 0 0 0 0 0 0 -0 -0 -0 -0 -0 nan
nan 0 0 0 0 0 0 1 0 0 0 -0 -0 -0 0 0 0 0 -0 -0 0 0 -0 -1 -1 -1 -1 -1 -1 -0 -0 -1 -0 -0 -0 -1 -1 -1 -1 -1 -1 -0 -0 -1 -1 -0 -0 0 -0 -1 -0 1 1 0 0 0 0 -0 -0 -0 1 1 0 -0 0 0 0 0 -0 -0 -0 -0 -0 nan
nan -0 0 0 0 1 1 0 0 0 0 -0 -0 0 0 0 0 0 -1 -1 -0 -0 0 -1 -1 -1 -0 -1 -1 -0 -0 -0 -0 -0 -0 -1 -1 -1 -1 -1 -0 0 0 -1 -1 -1 -1 -0 -0 -1 0 1 0 0 0 0 -0 -0 -0 0 1 1 0 -0 -0 0 0 0 0 -0 -0 -0 -0 nan
nan -0 -0 0 0 0 0 0 0 0 -0 0 0 0 0 0 -0 -1 -1 -1 -0 -0 -0 -0 -1 -0 -0 -1 -1 -1 -0 -0 -0 -0 -0 -1 -1 -1 -1 -1 -1 -0 0 -0 -1 -1 -1 -1 -0 -0 0 0 -0 0 1 0 -0 0 -0 -0 0 1 0 -0 -0 0 0 0 0 -0 -0 -0 -0 nan
nan -0 0 0 0 0 0 0 0 0 0 0 0 -0 -0 -0 -1 -1 -1 -1 -0 -0 -0 -1 -1 -0 0 -0 -1 -1 -1 -0 -0 -0 -0 -0 -1 -1 -1 -1 -1 -1 0 1 -0 -1 -1 -1 -0 0 1 0 -0 0 1 0 0 0 0 -0 0 1 1 0 -0 0 0 0 0 0 -0 -0 -0 nan
nan -0 -0 0 -0 -0 -0 -0 -0 -0 -0 -0 -0 -0 -0 -1 -1 -1 -1 -0 -0 -0 -0 -1 -1 -0 0 -0 -0 -1 -1 -1 -0 -0 -0 -0 -1 -1 -1 -1 -1 -1 -0 1 0 -1 -2 -1 -0 1 1 0 -0 0 0 -0 0 1 0 0 1 1 1 0 0 0 0 0 0 0 0 0 0 nan
nan -0 -0 -0 -0 -1 -1 -0 -0 -0 -0 -0 -0 -0 -0 -0 -1 -2 -1 -0 -0 -0 -0 -1 -1 -0 -0 -0 -0 -0 -1 -1 -0 -0 -0 -0 -1 -1 -1 -1 -1 -1 -1 0 1 -0 -2 -1 -0 0 0 0 1 1 0 -0 1 1 0 0 1 1 1 0 0 0 -0 0 0 0 0 0 0 nan
nan 0 -0 -0 -0 -1 -0 -0 -1 -1 -0 -0 -1 0 1 0 -2 -2 -1 0 -0 -1 -1 -1 -1 -0 -0 -0 -0 0 -0 -0 -1 -1 -0 -0 -0 -0 -1 -1 -0 -1 -2 0 1 -0 -1 -1 -0 0 0 0 1 1 1 1 1 1 1 0 1 1 2 1 0 0 0 0 0 0 0 0 0 nan
nan 0 -0 -1 -1 -2 -1 0 -0 -0 -0 -0 0 1 1 -1 -3 -2 -0 1 0 -1 -1 -1 -1 -0 -0 -0 -0 0 0 -0 -0 -0 -0 -0 -0 -0 -1 -0 -0 -1 -2 -0 1 -0 -1 -0 -0 -0 0 0 0 1 2 2 2 1 1 0 -0 1 2 1 1 1 0 0 0 0 0 0 0 nan
nan 0 -1 -1 -2 -2 -1 0 1 0 0 0 1 1 0 -1 -2 -1 -0 0 -0 -1 -2 -2 -1 0 -0 -1 -0 0 0 -0 -0 -0 -0 -0 -0 -0 -1 -0 -0 -1 -1 -0 0 0 -0 -0 -1 -0 0 0 0 -0 1 2 2 1 1 1 0 1 1 1 0 1 1 1 0 0 0 0 0 nan
nan -0 -1 -1 -1 -1 -1 0 1 1 1 1 0 -0 -1 -1 -0 -0 -0 0 0 -1 -2 -3 -2 0 0 -1 -1 0 0 -0 -0 -0 -0 -0 -0 -1 -1 -0 -1 -1 -1 -0 0 -0 -0 -0 -1 -0 0 0 0 1 1 -0 0 2 2 1 1 1 1 0 0 0 1 0 0 0 0 0 0 nan
nan -1 -1 -1 -1 -1 -0 0 1 1 1 0 -1 -1 -1 -0 0 1 1 1 0 -1 -1 -3 -3 -1 0 -1 -2 -0 -0 -1 -1 -0 -0 -0 -0 -1 -1 -1 -1 -1 -0 -0 -0 -0 -0 0 -0 -1 -0 -0 0 1 0 -1 -1 0 1 0 1 2 2 1 0 0 0 -0 -0 0 0 0 0 nan
nan -1 -1 -0 0 0 0 0 -0 -0 -0 -1 -2 -2 -1 1 2 2 1 1 -0 -1 -1 -2 -3 -3 -0 -0 -1 -1 -0 -1 -1 -0 0 -0 -0 -1 -1 -1 -1 -0 -0 -0 -1 -1 -0 0 0 -0 -1 -0 0 -0 -1 -1 -0 0 -0 0 1 2 2 1 0 -0 -0 -1 -0 -0 0 0 0 nan
nan -0 0 0 0 -0 -1 -1 -1 -1 -2 -2 -1 -0 1 2 3 3 1 0 -0 -1 -1 -2 -3 -3 -0 1 -1 -2 -0 -0 -1 -1 -0 -0 -0 -0 -1 -1 -1 -0 0 -0 -1 -1 -0 -0 0 0 -0 -0 -0 -1 -0 0 1 0 -0 -0 1 1 1 1 -0 -1 -1 -0 0 0 1 1 1 nan
nan 0 1 0 -0 -1 -1 -1 -1 -2 -2 -2 -1 1 2 2 2 2 2 0 -1 -1 -1 -2 -3 -2 1 1 -1 -2 -0 0 -1 -2 -1 -0 -0 -0 -1 -1 -1 -0 -0 -1 -1 -1 -1 -0 0 0 0 0 -0 0 1 1 0 -0 -1 -1 -0 -0 -1 -1 -1 -1 -0 0 0 0 0 1 1 nan
nan -0 0 0 -0 -1 -1 -0 -0 -1 -1 -1 -1 -0 1 1 0 1 1 1 -1 -1 -1 -2 -3 -1 1 1 -0 -1 -0 -0 -1 -2 -2 -1 -0 -0 -0 -0 -1 -0 -1 -1 -1 -1 -1 -1 0 1 1 0 0 1 1 0 -0 -0 -1 -2 -2 -2 -2 -2 -1 -1 0 1 0 -0 0 1 1 nan
nan -1 -0 -0 -0 -0 -0 -0 -0 -0 -0 -0 -1 -1 1 0 -0 0 1 0 -0 -1 -1 -2 -2 -1 1 0 -1 -0 -0 -1 -1 -1 -2 -2 -0 -0 -0 -1 -0 -0 -1 -1 -1 -1 -1 -1 -0 1 1 0 0 1 1 0 0 0 -1 -2 -2 -1 -1 -2 -2 -1 0 0 -0 -0 1 1 1 nan
nan -0 -0 -0 -0 -0 -0 -0 -0 -1 -0 -1 -1 -1 -0 -0 0 0 0 -0 -0 -0 -1 -1 -2 -1 -0 -0 -0 -0 -1 -1 -0 -1 -2 -2 -1 -0 -1 -1 0 -0 -1 -2 -1 -0 -1 -1 0 1 1 0 1 1 1 -0 -0 -1 -1 -1 -1 -1 -1 -1 -1 -1 -0 -0 -0 1 1 1 0 nan
nan -0 -0 -0 -0 -0 -0 -0 -1 -1 -1 -0 -1 -1 -0 -0 -0 -0 -0 -0 -0 -0 -1 -1 -1 -1 -1 -1 -0 -0 -1 -1 -0 -1 -2 -3 -1 -1 -1 -0 -0 -1 -2 -2 -1 -0 -0 -0 1 1 1 1 1 2 1 0 0 -1 -1 -1 -0 -1 -1 -1 -1 -1 -0 0 1 1 0 -1 -1 nan
nan -1 -1 -0 -0 -0 -0 -0 -0 -1 -1 -1 -1 -1 -1 -0 -0 -0 -0 -0 -0 -0 -0 -1 -1 -2 -2 -1 -1 -0 -1 -1 -0 -1 -2 -2 -2 -1 -1 -0 -0 -1 -1 -2 -1 0 0 0 0 1 2 2 3 2 1 0 -0 -0 -1 -1 -1 -0 -0 -0 -0 -0 0 1 1 1 -1 -1 -0 nan
nan -1 -1 -1 1 1 -0 -1 -1 -1 -1 -1 -1 -1 -1 -1 -1 -0 0 -0 -0 0 -1 -1 -1 -1 -2 -1 -1 -1 -1 -1 -0 -1 -2 -2 -2 -1 -1 -0 -0 -1 -1 -2 -1 0 0 -0 -0 1 2 2 1 -0 -1 -0 -0 -1 -2 -2 -1 -1 0 1 1 1 1 1 1 -1 -2 -1 0 nan
nan -1 -1 -1 0 1 1 -0 -1 -1 -1 -1 -1 -1 -1 -1 -1 0 1 0 0 -0 -1 -1 -1 -1 -1 -2 -1 -1 -1 -1 -1 -1 -2 -2 -2 -1 -1 -0 -1 -1 -1 -2 -1 0 1 -0 -1 1 2 1 -1 -2 -2 -0 -1 -2 -2 -2 -1 -1 0 1 0 -1 -0 0 -1 -2 -1 -0 0 nan
nan -0 -1 -1 -1 -1 -0 -0 -0 -1 -0 0 0 -1 -2 -2 0 2 1 -0 0 0 -0 -1 -1 -1 -1 -2 -2 -1 -1 -1 -1 -1 -1 -2 -2 -1 -1 -1 -1 -1 -2 -2 -1 1 1 -0 -1 0 0 -2 -4 -4 -2 -2 -3 -4 -3 -1 -1 -1 0 -0 -2 -2 -1 -1 -1 -0 1 1 1 nan
nan -0 -1 -1 -1 -2 -2 -2 -1 -1 0 1 1 0 -1 -1 1 1 0 -0 0 0 -1 -1 -1 -1 -2 -2 -2 -1 -1 -1 -1 -1 -1 -2 -1 -1 -1 -1 -1 -1 -1 -1 -0 0 1 -0 -1 -2 -2 -3 -4 -3 -2 -2 -2 -2 -1 -0 -0 -1 -1 -1 -2 -1 -1 -1 0 2 2 1 1 nan
nan -0 -0 -1 -1 -2 -2 -1 -1 -1 -0 0 0 1 1 1 1 0 -0 -0 0 -0 -0 -1 -1 -1 -2 -2 -2 -1 -1 -1 -1 -1 -1 -1 -1 -1 -2 -2 -1 -0 -0 -0 -1 -0 0 -1 -2 -3 -2 -1 1 2 2 2 2 1 1 -0 -1 -0 -0 0 -0 -0 -0 0 1 1 -0 -1 0 nan
nan 0 -0 -1 -2 -2 -1 -1 -1 -0 -0 -0 0 1 1 1 1 0 -0 -0 -0 -0 -0 -1 -1 -2 -2 -2 -1 -1 -1 -1 -1 -1 -1 -1 -1 -2 -2 -1 -0 0 0 -1 -1 -1 -0 -1 -1 -0 0 1 3 4 3 1 1 -0 -1 -1 -0 1 1 1 0 0 1 1 1 -1 -2 -1 0 nan
nan -0 -1 -1 -1 -1 -1 -1 -1 -0 0 0 0 1 1 1 0 -0 -0 -0 -0 -0 -0 -1 -1 -2 -2 -1 -1 -1 -1 -0 -1 -1 -1 -1 -1 -1 -1 -1 -0 0 -0 -1 -1 -0 0 -0 -0 1 1 2 2 2 -0 -2 -2 -2 -2 -1 0 0 0 1 1 1 1 1 1 0 0 1 0 nan
nan -1 -1 -1 -1 -1 -1 -1 -0 0 1 1 1 1 1 0 0 -0 -1 -1 -1 -0 -0 -1 -2 -2 -2 -1 -1 -1 -1 -1 -1 -1 -1 -1 -1 -2 -2 -1 -0 -0 -1 -1 -1 -0 0 0 -0 0 0 0 0 -1 -2 -2 -1 -1 -1 -0 0 -0 -0 0 1 1 1 1 1 0 0 0 -1 nan
nan -1 -1 -1 -0 -0 -0 -0 -0 0 1 1 1 1 0 -0 -1 -1 -1 -1 -1 -0 -1 -1 -2 -2 -1 -1 -1 -1 -1 -1 -1 -1 -1 -1 -1 -2 -2 -1 -0 -0 -1 -1 -1 -1 0 1 0 -0 -0 -0 -1 -1 -0 -0 -1 -1 -0 0 -0 -1 -1 -1 -1 -0 1 1 1 0 -0 -0 -0 nan
nan nan nan nan nan nan nan nan nan nan nan nan nan nan nan nan nan nan nan nan nan nan nan nan nan nan nan nan nan nan nan nan nan nan nan nan nan nan nan nan nan nan nan nan nan nan nan nan nan nan nan nan nan nan nan nan nan nan nan nan nan nan nan nan nan nan nan nan nan nan nan nan nan nan
Wind_Speed
24 24 23 23 22 21 19 18 18 17 17 16 15 15 15 16 22 26 29 30 27 23 23 23 22 18 15 15 14 13 12 12 13 14 15 16 17 17 17 19 19 19 20 20 19 19 19 19 21 21 21 19 18 18 19 16 13 11 9 8 9 10 9 7 6 6 5 6 8 8 8 10 13 13
26 26 26 26 26 24 23 22 21 21 21 20 18 17 16 16 18 21 26 31 30 26 23 23 25 23 20 18 17 16 15 14 14 15 15 15 16 16 17 19 21 22 22 20 19 20 20 20 21 22 22 22 20 19 20 17 14 13 10 9 9 11 10 8 7 7 5 6 9 9 9 11 14 14
27 27 27 27 27 26 25 24 23 23 23 22 21 20 18 18 19 19 22 29 31 28 25 24 25 26 25 22 20 19 17 16 16 16 16 15 14 15 17 18 20 22 23 22 21 21 22 21 22 23 24 24 22 20 20 17 15 14 12 10 10 12 12 9 8 8 5 6 9 10 10 12 14 15
28 28 28 28 28 26 26 26 25 24 24 24 23 22 21 20 19 19 21 26 31 30 28 26 25 25 27 25 23 21 19 17 16 16 16 16 15 15 16 17 19 21 23 23 22 23 23 22 24 24 25 26 24 22 21 18 17 15 13 12 12 13 13 10 10 10 7 7 10 11 11 12 14 14
27 28 29 30 29 29 29 29 28 27 26 25 25 24 25 23 21 21 22 25 30 32 31 28 25 24 26 27 25 23 22 19 17 17 17 16 16 15 14 15 17 20 22 23 24 24 24 24 25 25 26 26 25 24 23 20 19 17 14 13 14 14 14 11 11 10 8 7 10 11 11 13 14 14
28 28 29 29 28 27 28 28 29 29 28 28 28 27 27 27 26 24 25 27 29 32 33 31 28 24 24 27 26 24 23 21 18 18 17 16 17 17 15 14 15 17 20 22 23 25 26 26 26 26 27 27 26 26 24 21 19 17 15 15 15 15 15 13 11 12 9 8 10 12 12 12 14 14
28 28 28 27 26 25 27 28 28 29 30 30 30 29 29 30 30 28 28 28 29 31 33 32 30 26 24 25 26 25 25 23 21 20 19 17 17 17 18 18 16 16 18 20 23 25 26 26 26 26 27 27 26 26 24 22 20 18 16 17 17 16 16 15 12 12 10 8 10 12 13 13 14 15
26 26 26 26 25 25 26 26 26 26 27 28 28 28 28 28 29 28 28 28 28 29 31 32 31 29 26 26 25 25 25 25 24 22 20 19 18 18 19 20 19 18 18 20 23 24 25 27 26 25 27 27 27 27 26 23 20 19 17 18 18 18 18 16 14 13 12 9 9 12 13 14 16 16
24 24 24 24 24 25 26 26 25 25 26 26 26 26 26 26 26 27 27 28 28 28 30 33 32 30 28 26 25 24 25 26 26 24 21 20 20 19 19 20 20 19 18 19 23 25 26 27 27 27 28 29 29 29 28 24 21 20 19 18 20 19 19 18 15 14 13 10 10 12 14 15 17 17
24 23 22 22 22 23 25 26 25 26 26 27 28 29 28 28 27 27 27 28 29 29 30 32 33 32 28 27 27 24 22 25 27 25 23 21 20 19 19 20 20 20 20 20 22 25 27 27 27 28 29 29 29 29 29 25 22 21 20 19 21 21 20 20 17 16 15 12 11 12 14 16 17 17
26 25 24 23 23 23 24 25 24 25 25 26 28 29 29 30 29 29 28 28 28 30 30 30 32 33 30 27 27 25 22 23 25 25 24 23 21 19 19 20 19 19 20 20 21 24 27 27 27 29 29 30 30 29 29 27 23 23 22 20 23 23 21 21 19 17 17 14 12 12 13 15 16 17
29 28 28 27 26 26 26 26 26 26 26 26 27 26 26 28 30 30 30 29 28 29 30 30 30 31 30 28 27 27 24 23 23 23 23 24 23 21 20 20 19 18 19 19 21 24 27 27 27 28 29 31 30 29 29 27 25 25 23 21 24 25 23 22 21 19 18 16 14 12 12 14 16 16
32 31 31 30 30 29 28 28 28 28 28 27 28 27 26 27 28 29 30 30 29 29 31 31 29 29 30 28 26 26 25 23 23 22 22 23 23 22 21 20 19 19 19 19 20 24 27 28 27 27 29 32 31 29 29 28 26 27 24 22 25 26 24 24 23 20 20 18 16 14 12 13 14 15
34 33 33 33 32 31 31 31 30 30 29 28 29 28 28 27 28 29 30 30 30 30 31 33 31 29 29 28 26 25 25 23 23 22 22 22 22 21 21 20 19 19 20 21 20 22 26 28 28 28 30 33 33 30 29 28 28 28 26 23 26 27 25 25 24 22 21 19 18 16 14 13 13 14
36 35 34 34 33 33 33 33 32 31 30 30 30 30 29 29 29 30 30 30 30 30 31 34 34 33 31 28 26 24 23 23 23 21 20 21 21 20 20 20 19 17 19 21 21 21 24 27 29 30 31 35 35 32 30 29 29 29 27 24 26 28 27 26 25 24 22 21 20 18 15 14 13 13
39 37 36 36 36 36 36 34 33 32 31 31 30 30 30 30 30 31 31 31 31 31 31 33 36 37 35 31 28 24 21 21 21 20 19 20 20 19 19 21 21 18 18 21 21 21 22 25 29 32 33 36 37 33 30 29 29 29 27 25 27 29 28 27 26 25 24 22 21 19 17 15 14 13
40 39 39 39 39 38 37 35 34 33 32 31 31 31 31 31 32 33 33 33 32 32 32 34 36 38 37 35 32 26 21 19 20 20 18 18 19 19 20 21 22 20 20 22 22 21 22 24 28 32 35 37 37 33 30 29 30 30 28 26 27 30 30 28 27 26 25 24 23 21 19 17 15 14
41 41 40 41 41 40 38 36 35 34 33 32 32 32 32 33 35 36 37 36 33 32 33 34 36 39 39 38 36 31 24 21 21 20 18 18 19 21 21 22 22 21 21 22 24 25 24 24 26 29 34 38 36 33 32 31 31 31 29 27 28 30 31 29 28 27 26 25 24 23 21 18 17 15
41 41 40 41 41 41 40 38 35 34 33 34 34 35 37 37 38 39 39 37 35 33 32 33 35 37 37 37 38 36 30 26 24 22 20 19 20 22 23 23 22 21 20 20 22 27 26 24 25 29 34 38 36 33 33 33 33 31 29 28 29 31 32 31 29 28 27 26 26 24 23 21 18 17
41 40 40 40 40 40 40 38 36 35 35 36 38 39 40 39 39 38 36 35 35 34 32 31 32 35 35 35 36 37 35 31 28 26 25 23 21 22 24 25 23 22 21 19 19 25 28 25 24 30 36 38 36 34 34 34 35 32 29 29 29 31 33 31 30 29 28 27 27 26 24 23 20 18
38 39 40 40 41 41 41 40 39 38 38 39 40 40 39 38 37 36 34 33 33 33 32 31 31 32 32 32 33 35 36 35 33 31 30 28 24 23 25 25 24 23 22 19 17 21 29 27 25 32 38 37 35 35 34 35 36 32 29 29 30 32 34 32 30 30 29 27 27 27 26 24 22 21
33 35 37 37 38 40 40 40 39 38 37 38 38 38 37 37 37 35 33 33 32 31 30 31 31 33 32 31 31 32 33 35 36 36 35 32 27 26 26 26 25 24 23 20 16 18 27 28 27 33 38 36 36 37 36 36 37 34 30 30 30 33 36 33 30 30 29 28 28 27 26 26 25 24
33 34 35 36 36 37 37 36 36 35 34 35 36 37 36 36 37 35 33 33 33 32 31 31 32 34 34 32 33 32 32 34 37 39 39 36 32 31 29 27 26 25 25 22 17 16 22 28 31 35 37 36 37 39 39 39 38 35 33 32 32 35 37 34 31 31 30 29 28 27 27 27 26 26
36 36 36 36 35 36 36 36 36 35 35 35 36 36 36 37 38 36 35 35 35 34 33 33 33 35 35 33 34 34 32 32 34 38 40 39 37 35 33 30 28 27 26 23 19 17 19 25 31 36 37 36 37 40 41 40 37 35 35 34 34 38 39 35 32 31 30 29 28 27 26 26 26 26
35 35 35 34 34 36 38 37 36 36 36 36 37 38 39 39 38 37 37 37 37 36 36 36 36 37 37 35 35 35 34 32 33 35 37 39 38 38 37 34 32 31 28 25 21 18 19 22 27 35 38 36 37 40 40 39 37 35 35 33 34 40 43 38 34 33 31 30 29 27 26 25 24 24
36 35 34 34 36 38 39 39 38 38 37 37 39 40 41 41 40 39 39 39 38 38 37 38 39 40 39 38 38 37 36 33 32 33 35 36 37 38 38 36 34 32 29 26 23 21 20 22 25 33 39 38 37 38 40 39 36 35 36 35 35 41 45 42 38 35 34 33 31 29 27 25 23 23
41 41 40 39 39 40 40 40 40 40 40 40 42 43 43 43 42 42 42 41 40 39 38 39 41 43 42 41 40 40 39 35 32 31 33 34 35 35 36 36 34 33 30 27 25 23 22 22 23 29 38 41 38 37 40 41 38 39 41 39 38 43 46 44 42 39 36 35 34 31 29 27 25 24
43 43 42 41 41 41 41 42 42 42 42 43 44 45 45 45 44 44 44 44 42 41 41 42 43 45 45 44 42 42 41 38 33 31 31 32 33 34 34 34 34 32 31 29 26 24 23 24 23 24 32 41 41 39 40 41 41 42 43 38 38 45 48 45 44 43 39 37 36 34 33 33 31 29
40 40 40 40 40 40 40 41 41 42 44 44 45 45 45 46 46 46 46 46 44 43 43 44 46 47 46 45 43 42 41 39 36 33 32 31 31 32 32 33 33 33 32 30 28 26 25 26 25 24 27 36 42 42 42 43 42 43 44 41 40 45 48 47 46 45 42 40 40 38 36 35 34 33
36 38 38 37 38 39 39 39 38 39 40 41 42 43 44 46 48 49 48 48 47 44 43 46 49 49 46 44 43 42 42 41 39 37 35 32 31 30 30 31 32 32 32 31 29 27 26 27 27 26 28 34 41 43 42 43 42 42 45 46 43 44 47 49 48 45 44 43 42 39 36 35 34 35
35 36 35 34 35 37 38 38 38 38 38 37 38 39 39 41 44 45 46 48 50 48 45 46 49 49 45 43 43 43 42 41 40 39 37 35 33 30 29 30 31 30 30 32 30 27 26 26 27 29 29 33 39 43 41 41 42 42 44 47 47 47 48 50 49 47 45 43 40 36 35 36 36 37
34 34 33 32 33 33 34 35 36 36 36 36 37 38 35 34 35 36 38 42 47 47 45 44 45 45 44 44 44 43 42 42 40 38 37 37 35 31 29 31 31 29 28 31 30 27 25 25 28 31 30 29 33 40 41 39 40 43 44 45 48 49 48 49 50 48 45 43 40 38 39 40 38 37
35 36 36 36 35 35 35 36 35 35 35 35 36 38 36 33 32 32 33 37 40 42 43 44 44 42 42 44 45 44 43 42 40 37 36 37 36 32 30 33 33 30 29 31 30 27 26 26 28 31 29 26 29 38 42 41 40 42 43 43 45 48 48 48 49 48 46 45 43 42 42 41 38 37
38 39 40 40 40 38 37 37 37 37 36 35 35 36 37 36 35 34 35 37 37 38 41 44 45 44 43 43 44 45 44 42 39 36 35 36 36 33 32 34 34 32 31 31 30 28 26 26 28 29 29 29 32 38 42 43 43 43 44 43 44 46 47 48 48 48 47 46 46 46 45 41 39 37
38 40 40 41 41 37 35 37 39 39 38 38 38 36 36 37 37 37 38 38 37 37 40 42 44 45 45 43 44 45 45 42 39 37 35 36 36 34 33 33 34 33 32 31 31 29 25 26 29 32 33 34 35 36 37 40 43 45 45 44 44 45 47 48 47 47 48 47 48 48 46 42 41 40
38 40 40 42 41 37 36 40 41 40 40 41 41 39 38 37 37 38 39 39 37 37 39 42 44 45 46 45 45 44 43 41 40 38 36 37 37 35 34 34 33 33 32 31 32 30 26 26 31 35 36 36 35 34 36 38 40 42 42 43 44 45 47 48 47 47 47 48 49 49 46 43 42 42
37 39 39 42 42 40 40 42 42 42 43 42 42 42 41 40 39 39 39 39 38 38 39 41 43 45 46 47 46 45 42 41 40 39 38 38 37 36 35 35 34 33 32 31 31 30 27 28 33 36 37 37 37 37 37 38 38 39 39 40 42 44 45 48 48 47 46 48 50 49 46 43 42 41
34 36 37 39 40 40 41 41 41 43 43 43 44 44 44 44 43 41 40 39 39 39 39 40 42 43 44 45 47 46 44 42 41 39 38 38 38 38 37 36 35 34 32 31 32 31 28 29 34 36 36 38 40 40 39 39 40 41 41 41 42 42 42 45 47 46 46 47 47 46 45 43 41 39
29 32 34 36 38 39 39 39 40 41 42 43 45 45 46 46 44 40 41 42 41 39 39 39 41 41 42 44 46 46 45 44 42 40 40 39 39 39 39 37 36 35 33 32 33 32 29 31 35 37 37 38 40 39 39 41 42 43 42 42 41 40 41 42 43 42 43 44 43 44 45 44 42 39
27 29 31 34 36 36 36 37 39 40 41 43 44 44 46 46 42 40 42 44 43 41 39 39 41 41 41 43 46 46 45 44 43 41 40 40 39 39 39 38 36 35 34 33 32 32 32 33 35 36 37 37 36 36 37 40 40 40 41 42 41 39 38 39 38 38 38 40 41 42 44 44 43 41
25 27 30 32 34 34 34 34 36 39 41 43 43 44 45 43 40 40 42 42 42 41 39 38 40 41 40 42 45 46 45 43 42 40 40 40 39 39 38 38 36 35 33 32 32 31 31 30 31 33 35 36 37 36 37 39 40 40 42 42 41 38 35 33 33 32 31 32 36 40 41 40 39 39
24 26 29 31 32 33 32 32 33 35 37 40 42 42 41 39 39 41 41 40 40 40 38 37 39 41 41 41 43 45 44 42 41 41 40 40 39 39 38 38 37 36 34 32 31 29 25 24 29 36 38 39 41 41 40 41 42 42 42 41 39 37 34 30 27 26 26 27 30 35 37 38 38 38
24 26 28 29 30 31 30 29 29 29 30 33 35 36 35 37 40 41 41 40 39 39 39 37 38 40 42 42 42 44 44 42 40 41 41 40 40 39 39 39 38 36 33 31 30 29 24 21 28 40 44 43 43 44 42 41 41 40 41 41 39 37 35 31 27 25 25 25 25 27 30 33 34 31
24 25 27 28 29 30 29 28 26 25 25 26 27 27 28 33 37 40 41 40 39 38 37 37 38 40 42 41 41 43 44 41 40 41 41 40 40 39 38 38 36 34 32 29 28 30 28 21 23 37 46 46 44 44 42 40 39 37 38 39 39 37 37 35 31 28 27 26 25 25 25 27 28 24
23 24 25 26 26 26 25 22 22 21 20 20 20 21 23 28 32 36 39 40 39 38 37 36 38 40 41 40 41 42 42 41 40 40 40 39 38 37 36 36 34 32 32 30 28 30 30 23 21 33 46 48 45 44 42 40 38 37 36 37 39 39 40 39 36 33 30 28 27 26 25 25 25 22
Wind_Direction
284 282 279 276 275 276 277 275 275 276 278 279 281 287 297 303 306 309 311 311 311 308 304 301 299 299 301 297 291 288 287 281 269 261 257 254 251 250 249 247 243 241 242 240 236 233 233 232 229 226 224 221 218 214 210 212 219 219 209 191 177 176 184 187 179 172 143 140 154 151 148 150 149 149
282 280 278 275 274 274 273 271 268 269 271 271 270 274 282 288 293 300 304 305 306 306 305 301 299 298 298 296 294 290 290 292 282 267 260 256 253 250 249 247 243 240 240 240 236 231 230 231 230 227 224 221 220 216 212 213 219 219 210 194 178 176 185 188 180 179 154 143 156 152 148 152 152 151
280 278 277 275 274 274 274 272 269 269 271 271 269 267 270 277 282 289 296 297 297 300 305 302 297 297 296 293 293 292 289 290 288 277 265 259 256 253 250 247 244 241 238 237 234 230 229 231 229 225 222 220 218 216 213 215 220 220 211 195 180 178 186 188 182 183 167 148 158 155 149 153 154 153
277 275 274 272 271 270 270 270 269 270 271 272 270 268 267 269 273 280 286 289 290 292 298 300 296 297 297 292 290 292 290 286 286 284 272 260 257 256 254 249 245 243 240 236 233 230 230 230 228 224 220 218 216 212 214 219 221 221 213 197 184 180 186 189 184 186 177 156 160 156 151 154 155 154
276 276 274 272 270 268 268 268 267 267 267 269 269 269 270 269 269 275 280 284 288 288 290 295 296 296 296 293 289 290 292 288 283 282 277 266 258 254 254 250 246 243 242 239 234 231 230 229 227 224 219 218 215 211 215 223 224 222 214 200 189 182 186 189 187 188 182 164 163 159 155 159 159 156
279 279 278 276 273 269 267 265 265 265 264 265 266 266 268 269 269 272 277 281 285 286 287 290 293 293 293 294 290 289 291 292 288 281 278 273 262 254 250 248 246 243 242 241 235 232 231 228 227 225 220 217 216 213 215 222 224 221 211 200 193 185 185 189 189 188 184 170 168 165 160 161 161 156
278 278 277 275 272 268 266 265 264 265 264 264 264 265 265 267 269 272 274 276 278 282 285 287 289 290 291 291 292 291 288 290 294 288 279 275 268 259 253 251 250 246 243 241 235 231 231 228 225 225 223 218 216 214 215 219 223 218 207 200 196 188 185 189 190 189 185 172 170 169 165 162 157 152
275 274 273 272 269 267 266 266 266 265 265 263 263 264 264 265 268 271 272 272 273 277 281 283 285 287 289 288 290 293 290 287 292 293 285 276 271 265 258 254 253 249 244 241 236 231 229 226 221 220 222 219 215 214 214 218 220 215 207 201 197 191 187 187 189 189 185 173 169 170 167 161 154 150
273 271 271 270 267 265 264 265 264 263 263 262 262 263 264 265 267 269 269 271 271 273 276 280 282 284 286 286 286 292 295 290 289 292 289 278 272 270 263 256 254 250 246 241 237 232 228 223 217 215 218 217 214 214 214 216 218 214 209 203 199 195 189 187 189 189 184 175 171 171 169 164 158 153
273 270 269 269 267 264 263 264 264 264 263 262 263 264 265 266 268 269 268 268 270 272 273 275 278 281 284 284 283 286 293 293 290 291 293 284 273 272 269 263 258 254 248 240 237 234 227 222 217 213 214 214 212 212 212 213 215 213 210 205 200 197 190 186 188 188 184 179 173 171 169 167 163 159
271 269 268 267 266 265 264 265 267 269 270 270 269 268 267 266 266 267 267 267 268 271 272 272 274 278 281 282 282 282 287 292 290 291 297 292 279 272 269 265 260 256 251 241 236 233 228 225 221 214 214 214 212 211 212 212 212 210 211 208 202 199 192 186 188 189 185 181 176 170 168 168 167 165
265 266 266 265 265 264 264 267 270 273 276 278 277 273 269 266 265 265 265 266 266 266 270 272 271 273 278 279 280 281 283 287 287 289 296 296 290 283 275 267 260 257 253 245 238 232 227 226 223 219 217 216 212 211 211 212 210 207 209 209 203 199 193 186 188 190 187 182 178 173 169 167 168 170
261 261 263 264 264 263 264 267 270 272 274 276 275 271 267 264 264 265 265 265 265 264 266 269 270 270 273 276 278 279 280 282 284 287 292 295 296 294 284 270 259 256 255 249 240 232 227 225 223 221 220 216 212 210 210 210 208 206 208 208 203 200 193 187 188 190 188 184 181 179 174 168 168 171
261 260 262 264 262 261 263 266 268 269 270 270 269 266 263 262 262 265 267 267 267 265 264 266 268 269 269 271 274 276 278 280 280 284 290 294 297 299 290 272 257 256 259 255 246 236 229 225 222 219 218 217 213 211 210 208 205 204 207 206 202 199 194 189 189 190 189 186 184 184 182 173 168 171
263 262 262 261 260 260 263 266 267 267 267 267 265 261 259 259 260 262 267 269 269 268 265 264 266 267 267 268 270 272 275 277 278 282 287 291 294 298 294 278 266 268 268 260 253 243 231 226 224 220 218 215 211 209 209 207 204 203 205 204 202 199 195 191 190 189 190 189 187 187 187 182 174 173
263 262 260 259 259 261 263 265 266 266 266 264 261 257 254 255 257 259 262 266 268 268 267 264 264 264 265 266 265 267 271 274 276 279 283 286 288 291 290 281 276 281 279 266 260 253 239 229 225 222 220 215 209 207 207 205 205 205 204 203 202 198 196 194 192 190 190 191 190 190 190 186 181 179
262 261 260 260 261 262 263 264 265 265 264 261 257 254 252 252 254 255 257 261 264 265 265 263 261 261 263 264 262 262 266 270 272 274 278 281 282 283 283 279 277 283 284 275 268 261 251 238 228 224 221 214 208 207 204 203 206 206 203 203 202 199 197 196 193 190 190 192 192 193 193 190 186 185
262 262 262 262 263 264 263 263 264 263 261 258 255 252 251 251 252 254 258 261 261 261 260 259 258 258 260 262 261 259 260 264 267 269 272 276 277 278 278 276 276 279 284 280 269 261 257 247 236 230 219 209 207 208 204 203 208 207 203 203 202 199 199 198 195 192 190 192 194 195 197 194 189 188
259 260 261 261 262 262 262 262 261 259 257 256 256 255 254 255 257 259 261 261 259 258 257 256 257 257 258 259 259 258 256 258 260 263 268 272 273 275 276 276 276 275 280 284 269 258 256 249 240 233 216 204 206 209 205 205 209 208 205 203 201 200 201 199 197 194 191 192 194 196 199 198 193 191
256 256 257 258 259 259 259 258 257 255 255 257 259 260 261 261 262 262 262 260 258 257 256 255 254 256 257 257 257 256 255 255 256 258 264 267 267 270 273 276 277 274 276 285 276 257 252 249 241 230 214 204 205 208 206 207 209 208 206 204 200 201 202 200 198 196 193 192 194 196 199 200 198 195
258 257 257 257 258 258 257 257 257 256 258 259 261 262 262 262 262 262 262 261 260 258 256 254 252 253 255 255 255 255 254 254 254 256 259 261 261 266 270 273 277 275 272 281 283 258 247 247 240 225 213 208 209 207 205 206 208 208 208 205 201 201 202 202 199 196 194 193 194 196 198 199 200 198
265 264 262 261 261 261 261 260 260 259 258 257 257 257 259 260 260 261 262 262 261 260 258 256 253 252 253 253 252 252 252 251 252 253 255 257 258 263 267 269 274 276 271 274 281 265 249 244 235 219 210 209 213 212 206 205 207 208 206 203 202 201 201 201 199 197 196 195 194 197 198 198 200 201
271 269 267 264 262 262 262 262 261 259 257 255 255 256 257 258 259 261 263 263 262 261 260 258 256 255 254 253 252 252 251 249 250 251 252 254 255 258 262 265 270 274 271 268 275 276 259 243 229 217 206 201 204 208 208 208 208 206 203 201 200 200 200 201 198 196 197 196 195 198 199 198 200 202
275 273 270 267 265 263 264 263 262 261 259 258 258 258 256 257 261 265 268 268 266 264 261 259 257 257 257 255 254 254 251 247 246 248 249 250 251 254 258 260 264 267 267 266 271 281 271 249 229 219 213 204 199 200 205 208 208 205 202 201 199 197 198 200 198 195 197 198 197 198 201 201 201 202
274 271 269 268 267 267 267 266 263 262 260 259 258 257 256 258 263 267 268 269 269 267 265 261 258 256 256 255 254 254 252 247 244 245 246 246 247 249 253 255 259 261 261 263 267 273 274 260 235 219 214 210 205 201 200 203 206 206 205 203 199 195 196 199 198 196 196 198 199 200 202 203 202 203
272 269 268 268 268 269 268 267 265 262 259 257 255 255 256 259 262 262 263 264 264 263 263 262 260 257 256 254 253 253 253 249 244 243 244 244 244 246 249 251 255 257 259 262 265 265 269 267 246 223 213 210 209 208 203 201 202 201 202 205 203 197 196 198 198 196 196 197 199 200 203 205 204 204
274 272 272 271 271 271 270 268 267 264 261 259 257 256 257 258 259 258 258 257 257 257 258 258 258 256 255 254 252 252 253 251 247 244 244 243 243 243 245 248 250 253 256 259 261 260 261 264 255 234 221 214 211 208 206 204 202 198 199 205 205 198 197 199 199 197 197 198 199 201 205 206 206 206
274 273 272 272 271 269 268 266 265 263 262 260 259 259 259 258 258 255 253 252 251 252 252 252 253 254 254 252 251 251 253 253 250 246 244 243 243 243 244 245 246 247 251 255 256 256 257 258 257 247 231 220 214 212 210 208 206 202 200 203 204 199 197 200 201 200 200 202 203 206 208 208 208 208
273 273 272 272 271 269 267 266 265 264 262 260 259 258 258 257 255 252 250 249 247 246 246 247 250 251 251 250 250 250 252 253 252 248 244 242 243 243 243 243 241 242 246 250 252 252 254 255 257 255 241 226 220 219 217 212 209 204 199 198 201 201 199 200 203 203 203 206 208 210 212 213 213 213
276 275 275 273 273 272 271 269 267 266 265 263 261 258 255 253 251 249 247 246 244 243 242 243 246 249 249 248 249 249 250 251 250 248 245 243 243 243 241 240 239 239 241 244 247 249 251 253 255 256 249 235 225 221 218 214 211 206 200 196 198 200 200 202 204 203 205 208 209 209 214 217 218 219
279 278 277 275 272 271 271 269 266 264 263 261 258 256 252 249 248 246 244 243 242 241 240 240 244 247 247 245 245 246 247 247 247 246 244 243 243 242 240 238 237 237 239 241 244 246 247 248 250 252 251 243 231 222 218 218 215 210 203 199 199 200 201 202 202 202 205 209 208 209 215 220 220 221
280 279 277 274 270 267 266 265 263 260 258 255 254 253 250 246 245 244 242 242 241 240 239 239 240 242 242 241 242 243 243 243 244 243 241 241 242 241 238 235 235 236 238 239 240 243 243 242 246 249 250 249 239 227 220 217 215 211 207 205 203 204 204 203 201 201 203 207 209 213 217 218 219 222
279 276 274 271 268 265 262 260 258 255 253 251 252 254 252 247 243 241 240 239 238 237 236 236 236 236 238 239 239 239 240 240 240 238 237 238 239 237 235 234 234 234 237 238 237 237 236 234 239 245 247 248 244 233 225 220 215 211 211 211 208 206 206 205 203 201 201 204 209 214 216 217 220 225
276 274 272 270 268 265 261 258 256 254 251 249 249 252 253 251 246 242 240 239 237 235 234 234 233 233 233 234 236 236 236 237 236 233 233 235 235 233 231 232 233 233 236 238 237 233 232 232 234 236 236 236 234 230 226 225 221 215 213 214 213 210 207 206 205 204 203 205 208 211 214 217 221 224
275 273 273 272 270 266 262 259 257 255 253 252 250 250 251 253 252 247 243 241 240 237 235 233 231 230 230 230 232 233 234 234 232 230 229 231 232 230 227 229 231 231 232 236 236 234 235 236 231 226 223 223 223 220 220 223 224 219 213 212 214 215 212 209 207 206 206 207 209 212 215 217 219 221
274 275 275 276 275 270 265 263 261 258 257 256 254 252 249 248 251 251 247 243 240 237 237 235 231 228 227 227 228 229 230 229 228 226 225 227 228 226 224 226 229 229 231 233 234 235 238 238 230 222 216 211 210 213 216 219 221 222 217 212 212 215 213 211 209 207 207 207 210 213 216 217 219 221
277 278 278 279 279 275 270 268 265 262 260 258 256 255 252 250 252 254 251 248 243 237 236 236 231 227 225 224 225 226 227 226 225 223 221 223 225 222 221 223 226 227 229 232 232 234 238 236 228 221 214 206 204 210 217 218 217 219 219 217 215 215 213 210 209 209 209 209 210 214 218 220 221 222
280 280 279 278 278 276 273 270 266 263 262 259 256 255 254 256 257 254 249 247 245 238 234 233 230 226 223 222 222 223 224 224 222 220 219 220 221 220 219 221 224 224 226 229 230 232 238 237 228 221 215 209 207 210 214 215 214 213 215 217 219 219 216 212 211 212 212 211 213 217 221 223 225 225
281 280 278 277 275 273 270 268 265 263 262 260 258 254 252 254 255 250 242 241 240 237 233 231 228 224 221 219 218 219 221 221 219 217 217 218 219 219 218 220 223 223 223 227 229 231 236 236 231 226 223 221 222 223 223 221 218 213 210 212 216 219 219 216 214 214 215 215 215 218 220 222 226 228
287 285 282 280 277 272 266 262 260 259 258 257 256 254 253 251 249 243 238 235 234 233 232 230 227 223 219 217 216 216 218 219 217 215 215 217 218 218 217 219 222 222 223 226 229 231 235 236 233 230 231 233 235 234 228 223 219 213 209 210 212 214 217 218 217 216 216 216 216 216 217 219 223 226
296 294 290 286 282 276 268 262 258 256 256 255 252 251 251 248 240 235 233 230 228 228 228 226 224 221 216 214 214 214 214 215 214 213 213 215 217 217 217 218 221 221 222 225 227 230 236 241 238 233 232 232 230 223 216 213 213 210 208 210 211 211 214 217 219 220 221 219 217 216 216 218 221 224
306 302 296 289 285 280 275 270 265 263 262 258 253 251 249 243 236 232 229 225 222 223 223 221 219 217 214 212 211 211 211 211 211 211 211 212 214 215 216 217 219 221 222 224 226 228 235 244 239 229 224 222 220 215 210 210 211 208 205 206 209 211 211 209 211 219 225 226 222 218 215 214 217 221
314 307 299 292 287 282 277 272 269 268 266 262 256 251 245 238 233 230 226 221 218 219 221 219 215 212 212 211 208 208 209 209 208 209 210 211 213 214 214 216 218 220 222 224 227 227 232 240 235 223 216 215 217 217 215 213 211 208 205 204 204 206 206 201 197 205 215 223 227 226 221 218 218 221
318 310 302 296 291 286 281 274 269 268 268 261 254 247 239 233 230 225 220 216 214 215 217 216 211 209 209 207 205 205 207 207 207 208 209 211 213 214 214 216 218 220 221 223 226 227 229 237 234 220 212 211 214 217 216 214 211 208 206 203 199 199 199 196 192 195 202 210 214 216 219 221 223 227
322 314 307 301 296 292 287 278 268 268 267 258 248 240 232 226 223 219 215 214 214 215 214 212 208 207 206 204 202 203 203 203 205 207 209 210 212 213 214 216 217 218 219 220 224 226 227 232 232 219 211 209 212 215 217 216 213 209 205 201 197 195 195 195 194 194 197 202 205 204 205 210 214 219
Height
1518 1518 1517 1517 1516 1517 1517 1517 1517 1517 1517 1517 1517 1516 1516 1515 1512 1508 1504 1502 1502 1504 1504 1503 1503 1504 1505 1504 1504 1504 1503 1503 1502 1501 1502 1502 1503 1503 1504 1505 1506 1507 1507 1508 1510 1512 1514 1515 1516 1517 1519 1521 1521 1522 1523 1524 1524 1525 1526 1526 1526 1526 1526 1528 1529 1530 1530 1530 1530 1531 1531 1532 1533 1534
1515 1514 1514 1514 1513 1513 1514 1514 1514 1514 1514 1514 1514 1514 1514 1513 1512 1510 1505 1501 1499 1501 1502 1502 1501 1501 1502 1502 1502 1502 1502 1501 1501 1500 1500 1500 1501 1501 1502 1503 1503 1504 1505 1507 1508 1510 1511 1513 1515 1516 1518 1519 1520 1521 1522 1522 1523 1524 1525 1525 1525 1525 1526 1527 1528 1529 1530 1530 1530 1531 1531 1532 1533 1534
1511 1510 1510 1510 1510 1510 1510 1510 1511 1511 1511 1511 1511 1511 1511 1511 1510 1510 1507 1502 1498 1498 1500 1500 1500 1499 1499 1500 1500 1499 1500 1500 1499 1498 1498 1499 1499 1499 1499 1500 1501 1502 1503 1504 1506 1507 1509 1510 1512 1514 1516 1517 1519 1520 1520 1521 1522 1523 1524 1524 1524 1525 1525 1526 1528 1529 1529 1530 1530 1530 1531 1532 1533 1534
1507 1506 1506 1506 1507 1507 1507 1507 1507 1507 1508 1508 1508 1508 1508 1508 1508 1507 1506 1503 1498 1497 1498 1498 1498 1498 1497 1497 1497 1497 1497 1498 1497 1497 1497 1497 1497 1497 1497 1498 1498 1499 1500 1502 1504 1505 1506 1507 1509 1511 1513 1515 1516 1518 1519 1519 1520 1522 1523 1523 1524 1524 1524 1525 1527 1528 1529 1529 1530 1530 1531 1532 1533 1534
1503 1503 1502 1502 1503 1503 1503 1503 1503 1504 1504 1505 1505 1505 1505 1505 1505 1505 1504 1502 1498 1495 1495 1495 1496 1496 1495 1494 1495 1495 1494 1495 1495 1495 1495 1495 1495 1495 1495 1495 1496 1496 1497 1499 1501 1502 1503 1505 1506 1508 1510 1512 1514 1515 1516 1518 1519 1520 1522 1522 1523 1523 1523 1524 1526 1527 1528 1529 1529 1530 1531 1531 1532 1533
1500 1499 1498 1498 1499 1499 1499 1499 1499 1499 1500 1501 1501 1501 1502 1501 1502 1502 1501 1500 1497 1494 1492 1493 1493 1494 1493 1492 1492 1493 1492 1492 1493 1493 1493 1493 1493 1493 1493 1493 1493 1494 1494 1496 1498 1499 1500 1502 1504 1506 1508 1509 1511 1513 1515 1516 1517 1519 1521 1521 1522 1522 1523 1523 1525 1527 1528 1529 1529 1530 1530 1531 1532 1533
1496 1495 1494 1494 1495 1495 1495 1495 1495 1496 1496 1497 1497 1497 1498 1498 1498 1499 1498 1497 1496 1493 1490 1490 1490 1491 1491 1490 1490 1490 1490 1490 1490 1490 1490 1491 1491 1490 1490 1491 1491 1491 1492 1493 1494 1496 1498 1500 1502 1504 1506 1507 1509 1511 1513 1514 1516 1518 1519 1520 1521 1521 1522 1522 1524 1526 1527 1528 1529 1529 1530 1531 1532 1533
1492 1491 1491 1491 1491 1492 1491 1491 1492 1492 1492 1493 1493 1493 1494 1495 1494 1495 1495 1494 1494 1492 1489 1487 1488 1488 1488 1488 1488 1488 1488 1488 1488 1488 1488 1488 1488 1488 1488 1488 1489 1489 1489 1490 1491 1493 1495 1497 1499 1501 1503 1505 1507 1509 1511 1512 1514 1516 1518 1519 1519 1520 1521 1521 1523 1525 1526 1527 1528 1529 1530 1531 1532 1533
1488 1488 1487 1487 1488 1488 1488 1488 1488 1489 1489 1489 1490 1490 1490 1491 1491 1491 1492 1491 1491 1490 1488 1486 1485 1486 1486 1485 1485 1486 1486 1485 1485 1485 1486 1486 1486 1486 1486 1486 1486 1487 1487 1487 1488 1489 1491 1493 1495 1497 1499 1502 1504 1506 1508 1510 1512 1514 1516 1517 1518 1519 1520 1520 1522 1524 1525 1527 1528 1528 1529 1530 1531 1533
1484 1484 1484 1484 1485 1485 1485 1485 1485 1485 1486 1486 1486 1486 1487 1487 1488 1488 1488 1488 1487 1487 1486 1484 1483 1483 1483 1483 1483 1483 1484 1483 1482 1483 1483 1483 1484 1483 1483 1483 1484 1484 1484 1485 1485 1486 1487 1489 1491 1494 1496 1499 1502 1504 1506 1508 1510 1512 1514 1516 1517 1518 1519 1519 1520 1523 1525 1526 1527 1528 1529 1530 1531 1533
1481 1480 1480 1481 1481 1482 1482 1482 1482 1482 1482 1482 1482 1482 1483 1483 1484 1484 1484 1485 1484 1483 1483 1482 1481 1480 1480 1481 1480 1481 1481 1481 1481 1481 1480 1480 1481 1481 1480 1480 1481 1481 1482 1483 1483 1483 1484 1486 1488 1491 1494 1497 1499 1502 1504 1506 1508 1510 1512 1514 1515 1517 1518 1518 1519 1521 1524 1525 1527 1528 1528 1529 1531 1532
1476 1476 1476 1477 1477 1478 1478 1479 1479 1479 1479 1479 1478 1479 1479 1479 1479 1480 1480 1481 1481 1481 1479 1479 1479 1478 1477 1478 1478 1478 1479 1479 1479 1479 1479 1478 1478 1478 1478 1478 1478 1479 1479 1480 1481 1481 1482 1484 1486 1489 1492 1495 1498 1500 1502 1504 1506 1508 1510 1512 1513 1515 1516 1517 1518 1520 1522 1524 1526 1527 1528 1529 1530 1532
1472 1472 1472 1472 1473 1474 1474 1475 1475 1475 1475 1475 1474 1475 1475 1476 1475 1476 1476 1476 1477 1477 1476 1475 1476 1475 1474 1474 1475 1476 1476 1477 1476 1477 1477 1476 1476 1475 1475 1475 1476 1476 1476 1477 1478 1479 1480 1482 1485 1488 1491 1494 1496 1498 1499 1501 1503 1505 1507 1509 1511 1513 1515 1516 1517 1519 1521 1523 1525 1527 1527 1528 1530 1531
1467 1467 1467 1468 1469 1470 1470 1471 1471 1471 1471 1471 1471 1471 1471 1472 1472 1472 1472 1472 1472 1473 1473 1472 1472 1472 1471 1471 1473 1473 1473 1474 1474 1474 1475 1474 1474 1473 1472 1472 1472 1473 1474 1475 1475 1477 1478 1479 1482 1485 1488 1490 1493 1495 1496 1498 1500 1503 1505 1507 1509 1511 1513 1514 1516 1517 1520 1522 1524 1526 1527 1528 1529 1530
1462 1462 1462 1463 1464 1465 1466 1466 1466 1466 1466 1466 1466 1467 1467 1468 1468 1468 1468 1468 1468 1469 1469 1468 1468 1468 1467 1468 1470 1470 1471 1472 1472 1472 1472 1472 1472 1471 1470 1469 1469 1470 1471 1472 1473 1474 1475 1476 1478 1480 1483 1486 1488 1490 1493 1495 1498 1500 1502 1505 1507 1509 1511 1513 1514 1516 1518 1521 1523 1525 1526 1527 1528 1530
1457 1457 1457 1457 1458 1459 1460 1461 1462 1462 1462 1462 1462 1462 1463 1463 1463 1464 1464 1463 1464 1464 1464 1464 1464 1463 1464 1464 1466 1467 1468 1469 1469 1469 1469 1469 1469 1469 1468 1467 1467 1467 1468 1469 1470 1471 1472 1473 1474 1476 1478 1481 1483 1486 1490 1493 1495 1498 1500 1502 1504 1507 1509 1511 1513 1514 1517 1519 1522 1524 1525 1527 1528 1529
1451 1451 1451 1452 1452 1453 1455 1456 1456 1457 1457 1457 1457 1457 1458 1458 1458 1459 1459 1459 1459 1460 1460 1459 1458 1459 1460 1461 1462 1464 1465 1466 1466 1466 1466 1466 1466 1466 1466 1465 1465 1465 1465 1466 1467 1468 1468 1469 1469 1471 1474 1477 1480 1483 1486 1490 1493 1495 1497 1500 1502 1504 1507 1509 1511 1513 1515 1518 1520 1522 1524 1526 1527 1528
1446 1446 1446 1446 1446 1447 1449 1449 1450 1451 1452 1452 1452 1452 1452 1452 1453 1453 1454 1454 1455 1455 1455 1454 1453 1454 1456 1456 1457 1460 1462 1463 1463 1463 1463 1463 1463 1463 1463 1463 1462 1462 1463 1463 1464 1464 1465 1466 1466 1467 1470 1474 1477 1480 1483 1487 1490 1492 1495 1497 1499 1502 1504 1507 1509 1511 1513 1516 1518 1521 1523 1525 1526 1528
1440 1440 1440 1440 1441 1441 1442 1443 1445 1446 1447 1447 1447 1447 1446 1447 1447 1447 1447 1448 1449 1449 1450 1450 1449 1450 1451 1452 1454 1456 1458 1459 1459 1460 1460 1460 1460 1460 1460 1459 1459 1460 1460 1461 1461 1461 1461 1462 1463 1464 1467 1471 1474 1476 1480 1484 1487 1490 1492 1494 1497 1499 1502 1505 1507 1509 1511 1514 1517 1519 1521 1523 1525 1527
1433 1434 1434 1434 1435 1435 1436 1437 1439 1441 1442 1442 1441 1441 1440 1440 1440 1440 1441 1442 1443 1444 1444 1445 1445 1446 1447 1448 1449 1451 1453 1455 1456 1457 1457 1457 1458 1457 1457 1456 1456 1457 1458 1458 1458 1458 1458 1459 1461 1462 1465 1468 1470 1473 1477 1481 1484 1487 1489 1492 1494 1497 1500 1502 1505 1507 1510 1512 1515 1517 1520 1522 1524 1526
1427 1428 1428 1429 1429 1429 1430 1431 1433 1435 1436 1436 1435 1434 1434 1434 1434 1434 1435 1437 1437 1438 1439 1440 1440 1441 1442 1443 1444 1446 1448 1450 1452 1452 1452 1453 1455 1455 1454 1453 1454 1454 1455 1456 1456 1456 1456 1457 1458 1460 1463 1466 1468 1470 1474 1478 1481 1484 1487 1489 1492 1494 1498 1500 1503 1505 1508 1510 1513 1515 1518 1520 1522 1524
1423 1423 1423 1424 1424 1424 1424 1425 1427 1429 1430 1429 1428 1428 1428 1428 1427 1428 1430 1431 1431 1432 1434 1434 1435 1436 1436 1438 1439 1441 1443 1445 1447 1447 1447 1449 1452 1452 1451 1451 1451 1451 1451 1452 1454 1454 1454 1455 1456 1457 1460 1463 1464 1466 1469 1473 1477 1481 1484 1487 1490 1492 1495 1499 1501 1504 1506 1508 1511 1513 1516 1518 1520 1522
1419 1418 1418 1419 1419 1418 1418 1419 1420 1422 1423 1422 1421 1422 1422 1421 1421 1423 1425 1425 1426 1427 1428 1429 1430 1430 1431 1433 1434 1435 1438 1440 1441 1442 1443 1445 1448 1448 1448 1449 1449 1448 1448 1450 1452 1452 1452 1453 1453 1454 1456 1458 1460 1464 1467 1469 1473 1477 1480 1483 1486 1490 1493 1497 1499 1502 1504 1506 1509 1511 1514 1516 1518 1520
1413 1413 1412 1412 1412 1412 1412 1413 1414 1415 1416 1416 1415 1416 1416 1415 1415 1418 1420 1420 1421 1422 1422 1423 1424 1424 1425 1427 1428 1429 1432 1434 1436 1437 1439 1441 1443 1444 1445 1446 1447 1446 1445 1447 1450 1451 1451 1451 1451 1452 1453 1454 1456 1460 1464 1467 1470 1473 1476 1479 1482 1486 1491 1494 1497 1500 1502 1505 1507 1509 1511 1514 1516 1518
1407 1406 1406 1405 1405 1405 1405 1406 1407 1407 1408 1409 1409 1409 1409 1409 1411 1413 1414 1414 1415 1416 1417 1417 1418 1418 1419 1421 1422 1423 1425 1428 1430 1432 1434 1435 1438 1440 1441 1442 1443 1443 1443 1445 1447 1448 1449 1449 1449 1450 1451 1452 1453 1457 1461 1465 1467 1470 1473 1476 1479 1483 1487 1491 1494 1497 1500 1502 1504 1507 1509 1512 1514 1517
1400 1399 1398 1398 1398 1398 1398 1399 1400 1400 1401 1402 1402 1402 1403 1404 1406 1407 1407 1408 1409 1410 1410 1411 1411 1411 1412 1414 1415 1417 1419 1422 1425 1427 1429 1431 1433 1435 1437 1439 1439 1439 1440 1442 1444 1445 1446 1447 1447 1448 1449 1449 1451 1454 1457 1460 1464 1467 1471 1474 1476 1480 1483 1487 1491 1494 1496 1499 1501 1504 1507 1510 1512 1515
1393 1392 1392 1391 1391 1392 1392 1392 1392 1393 1393 1394 1394 1395 1396 1397 1399 1400 1401 1402 1403 1403 1404 1404 1404 1404 1406 1407 1409 1411 1413 1416 1420 1423 1424 1426 1429 1431 1433 1434 1435 1436 1437 1439 1440 1441 1442 1443 1445 1446 1447 1447 1448 1450 1453 1456 1459 1463 1467 1470 1474 1477 1481 1484 1487 1490 1493 1496 1499 1502 1505 1507 1510 1512
1386 1385 1384 1384 1384 1385 1384 1384 1384 1385 1385 1385 1386 1387 1388 1390 1391 1392 1393 1394 1396 1397 1397 1396 1396 1397 1399 1401 1403 1405 1408 1411 1415 1418 1420 1422 1424 1426 1428 1430 1431 1432 1434 1435 1436 1437 1439 1440 1441 1443 1445 1445 1445 1446 1449 1452 1455 1458 1462 1467 1471 1474 1477 1481 1484 1487 1490 1493 1496 1498 1500 1503 1505 1508
1378 1377 1376 1376 1376 1376 1376 1376 1376 1375 1375 1376 1377 1378 1380 1381 1382 1383 1384 1386 1388 1388 1388 1389 1389 1389 1392 1395 1397 1400 1403 1406 1409 1413 1415 1417 1419 1421 1423 1425 1426 1428 1429 1430 1432 1433 1435 1436 1438 1440 1442 1443 1443 1444 1446 1448 1451 1454 1458 1462 1465 1469 1474 1477 1480 1484 1487 1490 1492 1495 1497 1500 1502 1505
1370 1369 1368 1368 1368 1367 1367 1367 1367 1366 1366 1367 1368 1369 1371 1372 1372 1374 1376 1377 1378 1379 1380 1381 1381 1382 1386 1390 1393 1396 1398 1400 1402 1406 1410 1413 1414 1416 1418 1420 1421 1422 1424 1426 1427 1429 1431 1433 1435 1436 1438 1440 1441 1442 1443 1445 1448 1451 1454 1458 1461 1465 1470 1473 1477 1480 1483 1486 1489 1492 1496 1498 1501 1503
1363 1362 1361 1361 1360 1360 1359 1359 1358 1358 1358 1358 1358 1359 1360 1361 1362 1364 1366 1367 1368 1369 1371 1373 1375 1377 1381 1384 1387 1389 1391 1393 1396 1400 1404 1407 1409 1412 1414 1415 1415 1417 1420 1421 1423 1425 1427 1429 1431 1432 1434 1436 1438 1439 1441 1443 1445 1447 1450 1454 1457 1460 1463 1468 1472 1476 1480 1483 1487 1490 1493 1495 1498 1500
1357 1356 1355 1354 1354 1353 1352 1351 1350 1350 1350 1350 1350 1350 1351 1353 1354 1356 1358 1359 1359 1361 1364 1367 1369 1372 1375 1377 1379 1382 1385 1387 1390 1394 1398 1401 1404 1407 1409 1410 1410 1413 1415 1417 1419 1421 1423 1425 1427 1428 1430 1433 1434 1436 1438 1440 1443 1445 1447 1450 1454 1458 1461 1464 1467 1472 1476 1481 1484 1486 1489 1491 1494 1496
1352 1350 1349 1348 1347 1346 1345 1344 1344 1343 1343 1343 1343 1343 1344 1345 1347 1349 1350 1350 1351 1354 1357 1359 1362 1365 1368 1370 1373 1376 1378 1380 1384 1388 1391 1395 1399 1402 1404 1405 1406 1408 1410 1412 1414 1417 1419 1421 1423 1425 1427 1430 1431 1432 1434 1436 1439 1443 1445 1447 1450 1454 1458 1461 1464 1468 1472 1476 1479 1482 1485 1488 1490 1493
1345 1343 1341 1340 1339 1338 1338 1337 1336 1336 1336 1336 1336 1336 1337 1338 1339 1341 1342 1343 1345 1347 1350 1351 1354 1358 1361 1364 1367 1370 1372 1375 1379 1382 1386 1390 1393 1396 1398 1399 1401 1404 1406 1408 1410 1413 1415 1418 1420 1422 1424 1426 1427 1429 1430 1432 1435 1439 1442 1444 1446 1449 1453 1457 1461 1465 1468 1471 1474 1478 1481 1484 1486 1489
1337 1335 1333 1330 1330 1330 1329 1328 1328 1328 1328 1329 1329 1330 1331 1331 1332 1333 1335 1336 1339 1341 1342 1344 1347 1350 1354 1357 1360 1363 1366 1370 1373 1377 1380 1385 1388 1390 1393 1395 1397 1399 1401 1403 1406 1408 1411 1413 1415 1417 1419 1421 1423 1426 1428 1430 1432 1435 1438 1442 1444 1447 1450 1454 1458 1462 1465 1468 1472 1474 1477 1480 1483 1485
1329 1327 1325 1322 1321 1322 1321 1319 1319 1320 1320 1320 1321 1323 1324 1324 1324 1325 1327 1330 1333 1334 1335 1337 1339 1342 1346 1350 1353 1357 1360 1364 1368 1371 1374 1378 1382 1385 1388 1390 1392 1395 1397 1399 1402 1404 1406 1408 1410 1411 1413 1416 1419 1421 1423 1425 1428 1431 1435 1439 1441 1444 1447 1450 1454 1458 1461 1464 1467 1470 1473 1476 1478 1481
1322 1320 1318 1315 1314 1314 1313 1311 1311 1312 1312 1313 1314 1315 1316 1316 1317 1318 1320 1323 1326 1327 1328 1330 1332 1335 1339 1343 1347 1351 1355 1358 1362 1365 1368 1372 1376 1380 1383 1385 1388 1390 1393 1395 1397 1400 1401 1403 1404 1406 1408 1411 1413 1416 1418 1421 1424 1428 1431 1435 1437 1440 1443 1447 1450 1453 1457 1460 1463 1466 1469 1472 1475 1478
1316 1314 1312 1309 1307 1306 1305 1304 1304 1304 1304 1305 1306 1306 1307 1309 1310 1312 1313 1315 1318 1320 1323 1325 1326 1329 1333 1337 1341 1345 1349 1352 1356 1360 1363 1367 1371 1374 1377 1380 1383 1386 1389 1391 1393 1395 1397 1398 1399 1401 1403 1405 1407 1409 1413 1416 1419 1422 1426 1430 1434 1437 1440 1443 1446 1449 1453 1457 1460 1464 1467 1471 1473 1476
1311 1309 1306 1303 1301 1300 1298 1297 1297 1297 1297 1297 1297 1298 1299 1301 1303 1305 1306 1307 1310 1313 1316 1318 1320 1323 1327 1331 1335 1339 1343 1347 1351 1354 1357 1361 1365 1368 1372 1376 1379 1382 1385 1387 1389 1390 1392 1393 1395 1396 1397 1398 1400 1404 1408 1411 1413 1417 1422 1427 1431 1434 1436 1439 1443 1446 1450 1454 1458 1462 1465 1469 1471 1474
1306 1303 1300 1297 1294 1293 1292 1291 1290 1290 1289 1289 1290 1290 1291 1293 1296 1298 1298 1300 1303 1307 1309 1312 1315 1318 1321 1325 1330 1334 1337 1341 1345 1349 1353 1356 1360 1364 1368 1371 1375 1378 1380 1382 1384 1385 1386 1388 1389 1392 1394 1397 1400 1404 1407 1410 1413 1417 1420 1423 1427 1430 1433 1436 1440 1444 1447 1451 1455 1458 1461 1464 1467 1470
1300 1296 1293 1290 1287 1285 1284 1284 1283 1282 1282 1282 1282 1283 1284 1286 1288 1289 1291 1294 1297 1300 1303 1306 1309 1312 1316 1320 1324 1328 1332 1336 1340 1344 1348 1352 1355 1359 1363 1367 1371 1373 1375 1377 1379 1381 1383 1385 1388 1391 1395 1398 1400 1402 1404 1407 1410 1413 1416 1420 1424 1428 1431 1435 1439 1443 1446 1449 1452 1454 1457 1461 1463 1466
1294 1290 1287 1283 1281 1278 1277 1276 1276 1275 1274 1274 1274 1275 1276 1278 1280 1282 1285 1289 1292 1295 1298 1300 1303 1307 1311 1315 1318 1323 1327 1331 1336 1340 1344 1347 1351 1355 1359 1362 1366 1369 1371 1373 1376 1379 1382 1384 1386 1389 1392 1394 1395 1397 1399 1402 1405 1408 1413 1417 1422 1425 1429 1433 1437 1441 1444 1446 1448 1450 1453 1456 1459 1460
1289 1285 1281 1278 1275 1272 1271 1270 1269 1268 1267 1267 1267 1268 1269 1270 1273 1276 1279 1283 1286 1289 1292 1295 1299 1302 1306 1310 1314 1318 1323 1327 1331 1336 1340 1343 1346 1350 1354 1357 1361 1365 1368 1371 1374 1377 1379 1381 1383 1385 1387 1389 1391 1393 1396 1398 1402 1405 1410 1414 1418 1422 1427 1431 1434 1437 1440 1443 1445 1447 1450 1452 1454 1456
1284 1280 1275 1272 1269 1267 1265 1264 1263 1262 1262 1261 1261 1262 1263 1264 1266 1270 1273 1277 1281 1284 1287 1290 1294 1298 1302 1306 1310 1314 1319 1323 1328 1332 1335 1339 1342 1346 1350 1354 1358 1362 1365 1368 1371 1374 1375 1378 1380 1381 1382 1384 1387 1390 1393 1396 1399 1403 1407 1410 1414 1418 1423 1426 1429 1432 1435 1438 1441 1443 1447 1450 1453 1456
1279 1275 1271 1268 1265 1262 1260 1259 1258 1258 1257 1256 1256 1257 1258 1260 1262 1265 1269 1273 1277 1280 1283 1287 1290 1294 1298 1302 1306 1310 1315 1320 1325 1328 1332 1335 1339 1343 1347 1351 1355 1358 1361 1364 1367 1370 1372 1375 1377 1378 1379 1382 1384 1387 1390 1393 1396 1400 1404 1408 1411 1414 1418 1421 1424 1427 1430 1433 1437 1440 1443 1447 1450 1453